[[{"header":{"parameterUnit":"m.s-1","parameterCategory":1,"la1":30.2991,"la2":30.254,"lo1":-89.0895,"lo2":-89.0444,"dy":0.0017,"dx":0.0017,"nx":28,"ny":28,"refTime":"2024-08-31T03:00:00:Z","depth":0,"parameterNumber":2,"parameterNumberName":"U-component_of_WINDS"},"data":[0,0,0,0,0,0,0,0,0,0,0,0,0,0,0,0,0,0,0,0,0,0,0,0,0,0,0,0,0,0,0,0,0,0,0,0,0,0,0,0,0,0,0,0,0,0,0,0,0,0,0,0,0,0,0,0,0,0,-3.7182,-3.7181,0,-3.712,-3.7119,-3.7119,-3.6973,-3.697,-3.6967,-3.6964,-3.6903,-3.6905,-3.6906,0,0,0,0,0,0,0,0,0,0,0,0,0,-3.7178,-3.7178,-3.7182,-3.7181,-3.718,-3.712,-3.7119,-3.7119,-3.6973,-3.697,-3.6966,-3.6962,-3.6903,-3.6904,-3.6906,0,0,0,0,0,0,0,0,0,0,0,0,0,-3.7154,-3.7179,-3.7182,-3.71,-3.7092,-3.712,-3.7119,-3.7118,-3.6974,-3.697,-3.6965,-3.6961,-3.6903,-3.6904,-3.6906,-3.7009,0,0,-3.6912,-3.6913,0,0,0,0,0,0,0,0,-3.7156,-3.7155,-3.7113,-3.7106,-3.7097,-3.7049,-3.7096,-3.7082,-3.6975,-3.7019,-3.6964,-3.6958,-3.6956,-3.6953,-3.6952,-3.7006,-3.7003,-3.6912,-3.6913,-3.6914,-3.6914,0,0,0,0,0,0,0,-3.7158,-3.7156,-3.7157,-3.7113,-3.7103,-3.7068,-3.706,-3.7092,-3.7014,-3.7015,-3.7004,-3.6999,-3.6951,-3.695,-3.6949,-3.7002,-3.6912,-3.6914,-3.6915,-3.6915,-3.714,-3.7145,0,0,0,0,0,0,-3.7171,-3.7159,-3.7159,-3.7155,-3.7116,-3.7072,-3.7063,-3.7069,-3.7013,-3.7,-3.7003,-3.6992,-3.6949,-3.6947,-3.6946,-3.7063,-3.6914,-3.6916,-3.6917,-3.7136,-3.7142,-3.7147,0,0,0,0,0,0,-3.7171,-3.7172,-3.7162,-3.7154,-3.715,-3.7077,-3.7086,-3.7071,-3.707,-3.7004,-3.699,-3.7016,-3.6946,-3.6944,-3.6995,-3.7059,-3.6916,-3.6918,-3.713,-3.7137,-3.7144,-3.7298,0,0,0,0,0,0,-3.7171,-3.7173,-3.721,-3.7156,-3.7151,-3.721,-3.709,-3.7073,-3.7073,-3.7059,-3.7013,-3.7001,-3.6942,-3.6993,-3.6997,-3.7059,-3.6919,-3.7124,-3.7133,-3.7142,-3.7287,-3.731,-3.7329,0,0,0,0,0,-3.7172,-3.7256,-3.7212,-3.7213,-3.7196,-3.7214,-3.7211,-3.7141,-3.7079,-3.7116,-3.7074,-3.7002,-3.7052,-3.6999,-3.7002,-3.7066,-3.7119,-3.7131,-3.7141,-3.7277,-3.7305,-3.7329,0,0,0,0,0,0,-3.7319,-3.7247,-3.7198,-3.7267,-3.7248,-3.7189,-3.7233,-3.7172,-3.7171,-3.7157,-3.7071,-3.7062,-3.7125,-3.7101,-3.7043,-3.7164,-3.7074,-3.7086,-3.7177,-3.7203,-3.7224,-3.7227,-3.6921,0,0,0,0,0,-3.7359,-3.7379,-3.7316,-3.7383,-3.7376,-3.7307,-3.7312,-3.726,-3.7237,-3.7228,-3.719,-3.7171,-3.7182,-3.7192,-3.7198,-3.7284,-3.7272,-3.733,-3.7351,-3.7369,-3.738,-3.7424,-3.7449,-3.7183,-3.7183,-3.7183,0,0,-3.7443,-3.7406,-3.7424,-3.7411,-3.739,-3.7414,-3.7301,-3.733,-3.7347,-3.7233,-3.7278,-3.725,-3.7224,-3.7293,-3.7321,-3.7274,-3.7451,-3.7383,-3.7398,-3.7398,-3.7438,-3.7464,-3.7486,-3.719,-3.7189,-3.7188,0,0,-3.7606,-3.7581,-3.7634,-3.7616,-3.7585,-3.754,-3.7554,-3.7505,-3.7482,-3.7526,-3.7441,-3.7462,-3.7483,-3.7468,-3.7463,-3.7626,-3.756,-3.7632,-3.7741,-3.7786,-3.7807,-3.7825,-3.7883,-3.7905,-3.7643,-3.7643,-3.7644,0,-3.7713,-3.7744,-3.7669,-3.7704,-3.7702,-3.7601,-3.7655,-3.7641,-3.7616,-3.7617,-3.7566,-3.7592,-3.7567,-3.7631,-3.7672,-3.7671,-3.7685,-3.7635,-3.781,-3.7828,-3.7843,-3.7898,-3.792,-3.7652,-3.7651,-3.765,-3.7649,0,-3.7878,-3.7902,-3.7949,-3.7926,-3.793,-3.7975,-3.7908,-3.7921,-3.787,-3.7831,-3.7879,-3.7846,-3.7845,-3.7858,-3.7808,-3.7916,-3.7888,-3.7825,-3.7733,-3.7879,-3.7929,-3.7949,-3.7665,-3.7662,-3.7659,-3.7657,0,0,-3.8128,-3.8066,-3.8085,-3.8074,-3.8036,-3.8053,-3.8095,-3.8094,-3.8107,-3.8094,-3.8128,-3.815,-3.8092,-3.8087,-3.8035,-3.8075,-3.8207,-3.8007,-3.8005,-3.8045,-3.8325,-3.8372,-3.8397,-3.8165,-3.8168,-3.8171,-3.8327,0,-3.8281,-3.8347,-3.8283,-3.8362,-3.8383,-3.829,-3.8327,-3.8308,-3.8274,-3.8289,-3.8251,-3.8268,-3.819,-3.8187,-3.8222,-3.8184,-3.8262,-3.8172,-3.8195,-3.8197,-3.8203,-3.8423,-3.8472,-3.8621,-3.8347,-3.835,-3.8352,0,-3.8467,-3.8463,-3.8545,-3.8503,-3.851,-3.8544,-3.8539,-3.8554,-3.8533,-3.8505,-3.8502,-3.844,-3.848,-3.8393,-3.8447,-3.8388,-3.8394,-3.8378,-3.8382,-3.8379,-3.8282,-3.8426,-3.8666,-3.8688,-3.8382,-3.838,-3.8378,0,-3.8641,-3.8656,-3.8707,-3.8701,-3.8654,-3.8681,-3.8663,-3.8636,-3.8641,-3.8638,-3.864,-3.8643,-3.8644,-3.8648,-3.8589,-3.8531,-3.8652,-3.8559,-3.8631,-3.8633,-3.8658,-3.8657,-3.8902,-3.8666,-3.8666,-3.8665,-3.8665,0,-3.8817,-3.887,-3.8785,-3.8816,-3.8874,-3.8802,-3.8862,-3.8834,-3.8813,-3.8838,-3.8759,-3.8785,-3.8707,-3.8726,-3.8681,-3.8733,-3.8735,-3.8714,-3.8701,-3.872,-3.8723,-3.8722,-3.8709,-3.8671,-3.867,-3.8669,-3.8668,0,-3.9018,-3.8963,-3.9013,-3.8966,-3.8955,-3.9,-3.896,-3.8988,-3.8951,-3.8985,-3.8988,-3.893,-3.8948,-3.8891,-3.89,-3.887,-3.8947,-3.8918,-3.8954,-3.8944,-3.9019,-3.9012,-3.927,-3.93,-3.9047,-3.9049,-3.9051,0,-3.9133,-3.9172,-3.913,-3.9141,-3.9128,-3.9147,-3.9151,-3.9083,-3.9092,-3.9072,-3.9103,-3.9115,-3.912,-3.9154,-3.9113,-3.912,-3.909,-3.918,-3.909,-3.9109,-3.9091,-3.9088,-3.9092,-3.9198,-3.9201,-3.9204,-3.9206,0,-3.9343,-3.9314,-3.9323,-3.9325,-3.9333,-3.933,-3.9323,-3.9337,-3.9264,-3.9278,-3.9295,-3.93,-3.931,-3.9323,-3.9323,-3.9305,-3.9244,-3.9235,-3.9252,-3.927,-3.9289,-3.9279,-3.9003,-3.9228,-3.9226,-3.9224,-3.9223,-3.9222,-3.9503,-3.9534,-3.951,-3.9524,-3.9512,-3.9507,-3.9531,-3.9498,-3.9511,-3.9513,-3.9474,-3.95,-3.9481,-3.9473,-3.9463,-3.9484,-3.9442,-3.9467,-3.9473,-3.9479,-3.9492,-3.9288,-3.9484,-3.9483,-3.9482,-3.9482,-3.9481,0,-3.9708,-3.9688,-3.9702,-3.9694,-3.9706,-3.9649,-3.9639,-3.9652,-3.9676,-3.9663,-3.9671,-3.9693,-3.9707,-3.9668,-3.9676,-3.9701,-3.9673,-3.9705,-3.9701,-3.9699,-3.9528,-3.9513,-3.9727,-3.9727,-3.9727,-3.9727,-3.9727,-3.9727,-3.9815,-3.9865,-3.9835,-3.9879,-3.9859,-3.9884,-3.9884,-3.988,-3.9869,-3.9897,-3.9908,-3.9883,-3.9861,-3.9867,-3.9878,-3.9866,-3.9873,-3.9914,-3.9894,-3.9735,-3.971,-3.9687,-3.9672,-3.9917,-3.9917,-4.0061,-4.0063,-4.0064]},{"header":{"parameterUnit":"m.s-1","parameterCategory":1,"la1":30.2991,"la2":30.254,"lo1":-89.0895,"lo2":-89.0444,"dy":0.0017,"dx":0.0017,"nx":28,"ny":28,"refTime":"2024-08-31T03:00:00:Z","depth":0,"parameterNumber":3,"parameterNumberName":"V-component_of_WINDS"},"data":[0,0,0,0,0,0,0,0,0,0,0,0,0,0,0,0,0,0,0,0,0,0,0,0,0,0,0,0,0,0,0,0,0,0,0,0,0,0,0,0,0,0,0,0,0,0,0,0,0,0,0,0,0,0,0,0,0,0,1.5976,1.5976,0,1.6018,1.6019,1.6019,1.5937,1.5935,1.5932,1.593,1.5973,1.5976,1.598,0,0,0,0,0,0,0,0,0,0,0,0,0,1.5829,1.5832,1.5976,1.5976,1.5977,1.6018,1.6019,1.6019,1.5938,1.5935,1.5931,1.5928,1.5972,1.5976,1.598,0,0,0,0,0,0,0,0,0,0,0,0,0,1.5884,1.5833,1.5976,1.5941,1.5939,1.6018,1.6019,1.6019,1.5939,1.5935,1.5931,1.5927,1.597,1.5975,1.5981,1.6095,0,0,1.5998,1.6,0,0,0,0,0,0,0,0,1.5881,1.5889,1.5946,1.5944,1.5941,1.5968,1.5982,1.6045,1.594,1.5939,1.5929,1.5925,1.5975,1.5979,1.5996,1.6097,1.6099,1.5998,1.6001,1.6004,1.6005,0,0,0,0,0,0,0,1.5877,1.5887,1.5993,1.5947,1.5944,1.5925,1.5928,1.5994,1.5979,1.5938,1.5933,1.5939,1.5972,1.5991,1.5997,1.61,1.5998,1.6003,1.6006,1.6008,1.6302,1.6306,0,0,0,0,0,0,1.5877,1.5884,1.5991,1.5994,1.59,1.5931,1.5935,1.5964,1.5978,1.5976,1.5942,1.5935,1.5984,1.599,1.5998,1.6135,1.6004,1.6009,1.6012,1.6298,1.6303,1.6308,0,0,0,0,0,0,1.5874,1.5888,1.5989,1.5938,1.5949,1.5938,1.5971,1.5967,1.5985,1.5981,1.5978,1.5964,1.5981,1.599,1.6073,1.6135,1.6011,1.6016,1.6292,1.6299,1.6305,1.641,0,0,0,0,0,0,1.5871,1.5887,1.5929,1.5939,1.5952,1.6063,1.5975,1.597,1.5995,1.5986,1.6,1.5999,1.5978,1.6065,1.6078,1.6141,1.6021,1.6286,1.6295,1.6303,1.64,1.6419,1.6435,0,0,0,0,0,1.5866,1.5956,1.5932,1.5945,1.6005,1.6067,1.6074,1.6049,1.6,1.6043,1.6041,1.5998,1.6127,1.6074,1.6088,1.6153,1.6282,1.6293,1.6303,1.6393,1.6415,1.6435,0,0,0,0,0,0,1.5952,1.5956,1.593,1.6026,1.6047,1.6053,1.6106,1.6073,1.6108,1.6098,1.6066,1.607,1.616,1.6165,1.6106,1.6267,1.6197,1.621,1.626,1.6282,1.6299,1.6295,1.6025,0,0,0,0,0,1.5983,1.6032,1.6033,1.6118,1.613,1.6117,1.6143,1.6122,1.6142,1.6151,1.6154,1.6176,1.6222,1.6252,1.6293,1.6402,1.6405,1.6454,1.6471,1.6485,1.6497,1.6558,1.6581,1.6341,1.6341,1.6341,0,0,1.6046,1.6055,1.6087,1.6136,1.615,1.6203,1.6125,1.6183,1.6223,1.6159,1.6238,1.6242,1.6265,1.6362,1.6404,1.6369,1.6565,1.6498,1.651,1.6514,1.6571,1.6594,1.6614,1.6348,1.6347,1.6346,0,0,1.6188,1.6199,1.6272,1.6289,1.6311,1.6302,1.6321,1.6333,1.6333,1.6412,1.6367,1.6415,1.6493,1.6512,1.6532,1.6687,1.665,1.6702,1.6791,1.6851,1.687,1.6887,1.6944,1.6965,1.6714,1.6714,1.6714,0,1.6264,1.6341,1.6314,1.6377,1.6401,1.6348,1.6424,1.6441,1.6476,1.6494,1.6454,1.6555,1.6566,1.6668,1.6707,1.6724,1.6745,1.6699,1.687,1.6886,1.6901,1.6956,1.6977,1.672,1.672,1.6719,1.6718,0,1.6434,1.6489,1.6546,1.6582,1.6613,1.6682,1.6667,1.6702,1.668,1.6677,1.676,1.6772,1.6817,1.684,1.6818,1.6941,1.6918,1.6875,1.6803,1.6931,1.6981,1.7002,1.6729,1.6727,1.6725,1.6724,0,0,1.6628,1.6652,1.6674,1.6691,1.6715,1.6757,1.6826,1.687,1.6902,1.6929,1.6987,1.7057,1.7019,1.7041,1.7022,1.7075,1.7201,1.7025,1.7025,1.7059,1.7339,1.7372,1.7396,1.7177,1.7181,1.7184,1.7338,0,1.677,1.6886,1.6867,1.6981,1.7033,1.6986,1.7046,1.7068,1.7068,1.7114,1.7113,1.7165,1.7109,1.7123,1.7173,1.7175,1.7257,1.7163,1.7231,1.7234,1.7227,1.7422,1.7456,1.76,1.7357,1.7361,1.7363,0,1.6949,1.6986,1.7105,1.7124,1.7146,1.72,1.7241,1.7285,1.7311,1.7307,1.7336,1.7308,1.7379,1.7308,1.7406,1.7343,1.737,1.7376,1.7381,1.7386,1.7306,1.7433,1.7645,1.7668,1.7394,1.7391,1.7389,0,1.7081,1.7159,1.7242,1.7258,1.7282,1.7322,1.7334,1.7356,1.7385,1.7423,1.7442,1.7487,1.7512,1.7548,1.7535,1.7483,1.7637,1.7563,1.7637,1.7638,1.767,1.7668,1.789,1.7688,1.7688,1.7687,1.7687,0,1.7241,1.7316,1.7301,1.7352,1.7437,1.7415,1.7499,1.7506,1.7527,1.758,1.7543,1.7593,1.7572,1.7623,1.7613,1.7698,1.7709,1.7709,1.7705,1.7712,1.7713,1.7729,1.7719,1.7693,1.7692,1.7691,1.769,0,1.74,1.7393,1.748,1.7498,1.7504,1.7566,1.7581,1.763,1.7629,1.7697,1.7711,1.771,1.7767,1.7758,1.7822,1.7816,1.7922,1.7906,1.7913,1.7909,1.7984,1.7978,1.8225,1.8257,1.8034,1.8036,1.8038,0,1.7502,1.756,1.7584,1.7617,1.7633,1.7686,1.7717,1.77,1.7734,1.7771,1.7816,1.7871,1.7913,1.8008,1.8013,1.8063,1.8048,1.8132,1.8055,1.8061,1.8051,1.8048,1.8054,1.8146,1.8149,1.8151,1.8152,0,1.7685,1.768,1.7726,1.7773,1.7811,1.7847,1.7878,1.7908,1.7894,1.7935,1.7994,1.8027,1.8094,1.815,1.8198,1.8211,1.8181,1.8177,1.8197,1.8204,1.8207,1.8208,1.7955,1.8171,1.8169,1.8168,1.8167,1.8166,1.782,1.787,1.7896,1.795,1.7973,1.8005,1.8053,1.8059,1.8108,1.8161,1.8149,1.8217,1.8245,1.8306,1.8326,1.838,1.8349,1.8378,1.8385,1.8392,1.8402,1.8199,1.8389,1.8388,1.8388,1.8387,1.8387,0,1.8001,1.8017,1.8067,1.8114,1.8158,1.8126,1.8162,1.82,1.826,1.829,1.8334,1.8404,1.8459,1.8471,1.8525,1.8566,1.8554,1.8581,1.8577,1.8582,1.8425,1.8403,1.859,1.859,1.859,1.859,1.859,1.859,1.8101,1.8185,1.8184,1.8281,1.8297,1.8363,1.8386,1.8417,1.8441,1.8521,1.8567,1.8575,1.8599,1.8654,1.8705,1.8707,1.8729,1.8762,1.8759,1.8612,1.8592,1.8573,1.8552,1.8766,1.8767,1.891,1.8912,1.8913]}]]